Time,TemperatureF,DewpointF,PressureIn,WindDirection,WindDirectionDegrees,WindSpeedMPH,WindSpeedGustMPH,Humidity,HourlyPrecipIn,Conditions,Clouds,dailyrainin,SoftwareType,DateUTC
2012-11-17 00:00:00,55.9,20.5,29.97,ESE,113,3.0,5.0,25,0.00,,,0.00,WUHU216DAVISVP2,2012-11-17 08:00:00,
2012-11-17 00:30:00,55.9,20.5,29.97,ESE,113,2.0,5.0,25,0.00,,,0.00,WUHU216DAVISVP2,2012-11-17 08:30:00,
2012-11-17 01:00:00,56.3,19.9,29.98,ESE,113,2.0,4.0,24,0.00,,,0.00,WUHU216DAVISVP2,2012-11-17 09:00:00,
2012-11-17 01:30:00,57.1,19.6,29.97,ESE,113,2.0,5.0,23,0.00,,,0.00,WUHU216DAVISVP2,2012-11-17 09:30:00,
2012-11-17 02:00:00,57.8,19.1,29.95,ESE,113,2.0,5.0,22,0.00,,,0.00,WUHU216DAVISVP2,2012-11-17 10:00:00,
2012-11-17 02:30:00,56.8,19.3,29.95,ESE,113,1.0,5.0,23,0.00,,,0.00,WUHU216DAVISVP2,2012-11-17 10:30:00,
2012-11-17 03:00:00,55.4,19.2,29.95,East,90,1.0,3.0,24,0.00,,,0.00,WUHU216DAVISVP2,2012-11-17 11:00:00,
2012-11-17 03:30:00,55.2,19.9,29.94,ESE,113,1.0,2.0,25,0.00,,,0.00,WUHU216DAVISVP2,2012-11-17 11:30:00,
2012-11-17 04:00:00,54.4,20.2,29.95,South,180,1.0,6.0,26,0.00,,,0.00,WUHU216DAVISVP2,2012-11-17 12:00:00,
2012-11-17 04:30:00,53.2,20.0,29.97,SSE,158,2.0,5.0,27,0.00,,,0.00,WUHU216DAVISVP2,2012-11-17 12:30:00,
2012-11-17 05:00:00,52.3,21.7,29.97,SE,135,1.0,3.0,30,0.00,,,0.00,WUHU216DAVISVP2,2012-11-17 13:00:00,
2012-11-17 05:30:00,53.0,21.6,29.98,SE,135,1.0,4.0,29,0.00,,,0.00,WUHU216DAVISVP2,2012-11-17 13:30:00,
2012-11-17 06:00:00,52.5,21.1,30.00,ESE,113,0.0,2.0,29,0.00,,,0.00,WUHU216DAVISVP2,2012-11-17 14:00:00,
2012-11-17 06:30:00,53.7,22.2,29.99,ESE,113,1.0,3.0,29,0.00,,,0.00,WUHU216DAVISVP2,2012-11-17 14:30:00,
2012-11-17 07:00:00,56.8,23.1,30.00,ESE,113,1.0,3.0,27,0.00,,,0.00,WUHU216DAVISVP2,2012-11-17 15:00:00,
2012-11-17 07:30:00,60.8,23.7,30.00,East,90,1.0,3.0,24,0.00,,,0.00,WUHU216DAVISVP2,2012-11-17 15:30:00,
2012-11-17 08:00:00,63.9,25.3,30.00,East,90,2.0,6.0,23,0.00,,,0.00,WUHU216DAVISVP2,2012-11-17 16:00:00,
2012-11-17 08:30:00,66.9,25.7,30.00,East,90,3.0,7.0,21,0.00,,,0.00,WUHU216DAVISVP2,2012-11-17 16:30:00,
2012-11-17 09:00:00,68.8,27.2,30.00,East,90,3.0,6.0,21,0.00,,,0.00,WUHU216DAVISVP2,2012-11-17 17:00:00,
2012-11-17 09:30:00,71.6,27.1,30.00,ESE,113,3.0,6.0,19,0.00,,,0.00,WUHU216DAVISVP2,2012-11-17 17:30:00,
2012-11-17 10:00:00,74.2,26.5,30.00,East,90,1.0,4.0,17,0.00,,,0.00,WUHU216DAVISVP2,2012-11-17 18:00:00,
2012-11-17 10:30:00,72.5,26.5,29.99,WSW,248,1.0,5.0,18,0.00,,,0.00,WUHU216DAVISVP2,2012-11-17 18:30:00,
2012-11-17 11:00:00,72.4,26.5,29.97,WSW,248,2.0,4.0,18,0.00,,,0.00,WUHU216DAVISVP2,2012-11-17 19:00:00,
2012-11-17 11:30:00,73.1,27.0,29.96,West,270,2.0,6.0,18,0.00,,,0.00,WUHU216DAVISVP2,2012-11-17 19:30:00,
2012-11-17 12:00:00,74.2,27.9,29.95,WNW,293,2.0,6.0,18,0.00,,,0.00,WUHU216DAVISVP2,2012-11-17 20:00:00,
2012-11-17 12:30:00,74.5,28.2,29.93,WNW,293,2.0,5.0,18,0.00,,,0.00,WUHU216DAVISVP2,2012-11-17 20:30:00,
2012-11-17 13:00:00,75.1,28.7,29.92,West,270,1.0,4.0,18,0.00,,,0.00,WUHU216DAVISVP2,2012-11-17 21:00:00,
2012-11-17 13:30:00,75.3,30.2,29.91,WSW,248,1.0,3.0,19,0.00,,,0.00,WUHU216DAVISVP2,2012-11-17 21:30:00,
2012-11-17 14:00:00,75.1,28.7,29.91,SW,225,1.0,3.0,18,0.00,,,0.00,WUHU216DAVISVP2,2012-11-17 22:00:00,
2012-11-17 14:30:00,74.3,29.3,29.91,West,270,1.0,3.0,19,0.00,,,0.00,WUHU216DAVISVP2,2012-11-17 22:30:00,
2012-11-17 15:00:00,72.9,29.4,29.92,WNW,293,2.0,5.0,20,0.00,,,0.00,WUHU216DAVISVP2,2012-11-17 23:00:00,
2012-11-17 15:30:00,70.9,27.8,29.93,WNW,293,3.0,9.0,20,0.00,,,0.00,WUHU216DAVISVP2,2012-11-17 23:30:00,
2012-11-17 16:00:00,68.2,27.9,29.92,WNW,293,1.0,5.0,22,0.00,,,0.00,WUHU216DAVISVP2,2012-11-18 00:00:00,
2012-11-17 16:30:00,65.0,28.3,29.93,WNW,293,0.0,1.0,25,0.00,,,0.00,WUHU216DAVISVP2,2012-11-18 00:30:00,
2012-11-17 17:00:00,63.7,27.2,29.93,North,0,0.0,1.0,25,0.00,,,0.00,WUHU216DAVISVP2,2012-11-18 01:00:00,
2012-11-17 17:30:00,60.8,28.3,29.94,North,0,0.0,0.0,29,0.00,,,0.00,WUHU216DAVISVP2,2012-11-18 01:30:00,
2012-11-17 18:00:00,59.7,27.4,29.95,North,0,0.0,0.0,29,0.00,,,0.00,WUHU216DAVISVP2,2012-11-18 02:00:00,
2012-11-17 18:30:00,58.8,29.0,29.95,NNW,338,0.0,1.0,32,0.00,,,0.00,WUHU216DAVISVP2,2012-11-18 02:30:00,
2012-11-17 19:00:00,58.5,29.5,29.96,SE,135,0.0,2.0,33,0.00,,,0.00,WUHU216DAVISVP2,2012-11-18 03:00:00,
2012-11-17 19:30:00,57.6,28.7,29.96,SE,135,0.0,1.0,33,0.00,,,0.00,WUHU216DAVISVP2,2012-11-18 03:30:00,
2012-11-17 20:00:00,57.1,29.0,29.96,ESE,113,0.0,2.0,34,0.00,,,0.00,WUHU216DAVISVP2,2012-11-18 04:00:00,
2012-11-17 20:30:00,58.6,30.3,29.97,SE,135,1.0,3.0,34,0.00,,,0.00,WUHU216DAVISVP2,2012-11-18 04:30:00,
2012-11-17 21:00:00,58.6,30.3,29.96,SE,135,2.0,4.0,34,0.00,,,0.00,WUHU216DAVISVP2,2012-11-18 05:00:00,
2012-11-17 21:30:00,58.6,30.3,29.99,ESE,113,1.0,4.0,34,0.00,,,0.00,WUHU216DAVISVP2,2012-11-18 05:30:00,
2012-11-17 22:00:00,59.4,29.5,29.98,SE,135,1.0,3.0,32,0.00,,,0.00,WUHU216DAVISVP2,2012-11-18 06:00:00,
2012-11-17 22:30:00,60.4,28.8,29.98,SE,135,2.0,4.0,30,0.00,,,0.00,WUHU216DAVISVP2,2012-11-18 06:30:00,
2012-11-17 23:00:00,59.3,28.6,29.99,SSE,158,1.0,6.0,31,0.00,,,0.00,WUHU216DAVISVP2,2012-11-18 07:00:00,
2012-11-17 23:30:00,59.9,28.4,29.98,SSE,158,3.0,7.0,30,0.00,,,0.00,WUHU216DAVISVP2,2012-11-18 07:30:00,